Tracking 35275 objects as of 8-Sep-2026
HD Live streaming from Space Station
objects crossing your sky now

STARLINK-3653

Track STARLINK-3653 now!
10-day predictions
STARLINK-3653 is classified as:


NORAD ID: 52000
Int'l Code: 2022-025AW
Launch date: March 9, 2022
Source: United States (US)
Launch site: AIR FORCE EASTERN TEST RANGE (AFETR)
Your satellite tracking list
Your tracking list is empty




NASA's NSSDC Master Catalog

Two Line Element Set (TLE):
1 52000U 22025AW  26250.36561392  .00000569  00000-0  27219-4 0  9993
2 52000  53.1590 275.0096 0001056  62.9088 297.2023 15.35400625248466
Source of the keplerian elements: AFSPC